Regional Weather Roundup
Issued by NWS

Home | Current Version | Previous Version | Graphics & Text | Print | Product List | Glossary On
Versions: 1 2 3 4 5 6 7 8 9 10 11 12 13 14 15 16 17 18 19 20 21 22 23 24 25 26 27 28 29 30 31 32 33 34 35 36 37 38 39 40 41 42 43 44 45 46 47 48 49 50
000
ASUS43 KMPX 261001
RWRMN
WEATHER ROUNDUP FOR MINNESOTA
NATIONAL WEATHER SERVICE TWIN CITIES/CHANHASSEN MN
500 AM CDT SAT MAY 26 2018


NOTE: "FAIR" INDICATES FEW OR NO CLOUDS BELOW 12,000 FEET WITH NO
SIGNIFICANT WEATHER AND/OR OBSTRUCTIONS TO VISIBILITY. N/A MEANS
CURRENT SKY AND/OR WEATHER CONDITIONS ARE NOT AVAILABLE.

MNZ060>063-068>070-261100-
   Twin Cities Metro

CITY           SKY/WX    TMP DP  RH WIND       PRES   REMARKS
TWIN CITIES    FAIR      67  62  84 SW6       29.69S
ST PAUL        FAIR      63  59  87 CALM      29.70R
CRYSTAL        FAIR      68  60  75 S7        29.67S
BLAINE         FAIR      68  61  77 S9        29.68S
LAKEVILLE      FAIR      64  61  88 CALM      29.70S
EDEN PRAIRIE   FAIR      65  60  84 SW9       29.69S
SOUTH ST PAUL  FAIR      64  60  87 CALM      29.70S
LAKE ELMO      FAIR      63  61  94 S5        29.70S
$$
MNZ001>005-007-008-013>017-022>024-027-028-261100-
   Northwest Minnesota

CITY           SKY/WX    TMP DP  RH WIND       PRES   REMARKS
BEMIDJI        FAIR      58  53  83 SW3       29.64R
HALLOCK        FAIR      61  55  82 W6        29.61R
ROSEAU         FAIR      64  57  77 W5        29.61R
WARROAD        FAIR      63  59  88 W8        29.61R
THIEF RVR FALL FAIR      59  56  89 SW6       29.64R
CROOKSTON      FAIR      59  52  77 CALM      29.64R
FOSSTON        FAIR      55  50  82 S3        29.65S
DETROIT LAKES  FAIR      61  57  88 CALM      29.68R
MOORHEAD       FAIR      63  50  63 SW6       29.66R
PARK RAPIDS    FAIR      60  53  77 W5        29.65R
MAHNOMEN       FAIR      60  51  74 S6        29.65R
$$
MNZ006-009>011-018-025>026-261100-
   North Central Minnesota

CITY           SKY/WX    TMP DP  RH WIND       PRES   REMARKS
BAUDETTE         N/A     61  55  81 MISG      29.59R
INTL FALLS     FAIR      58  57  97 SE3       29.59R
WASKISH        FAIR      63  57  82 CALM      29.61S
BIG FORK       FAIR      55  54  94 CALM      29.62S
LONGVILLE      FAIR      55  54  94 CALM      29.64S
GRAND RAPIDS   FAIR      62  56  80 S7        29.65R
CRANE LAKE     FAIR      52  52 100 CALM      29.62S
ORR            FAIR      57  54  88 CALM      29.58F
COOK           FAIR      57  55  94 CALM      29.63R
WALKER         FAIR      58  54  85 CALM      29.64R
$$
MNZ012-019>021-037-261100-
   Northeast Minnesota

CITY           SKY/WX    TMP DP  RH WIND       PRES   REMARKS
DULUTH         FAIR      61  58  90 S3        29.64S
ELY            FAIR      61  57  88 SE7       29.63F
HIBBING        FAIR      55  54  96 CALM      29.63S
EVELETH        DRIZZLE   61  55  82 CALM      29.64F
DULUTH HARBOR  FAIR      66  61  82 S3        29.62S
TWO HARBORS    FAIR      63  55  77 CALM      29.61R
SILVER BAY     FAIR      63  61  94 CALM      29.62R
GRAND MARAIS     N/A     44  42  93 E16       29.61F
G MARAIS ARPRT MOCLDY    61  54  77 NE9       29.68F
$$
MNZ029>031-032-039>041-046>048-054>057-064-261100-
   West Central Minnesota

CITY           SKY/WX    TMP DP  RH WIND       PRES   REMARKS
FERGUS FALLS   FAIR      64  54  68 CALM      29.64S
MORRIS         CLEAR     64  54  68 W6        29.68S
ALEXANDRIA     FAIR      66  54  65 W5        29.70R
ELBOW LAKE     FAIR      61  51  69 CALM      29.69S
WADENA         FAIR      63  54  72 W3        29.67R
GLENWOOD       FAIR      63  55  77 W7        29.67S
APPLETON       CLEAR     66  55  68 SW3       29.68S
BENSON         CLEAR     63  55  77 CALM      29.70S
ORTONVILLE     CLEAR     66  55  68 W5        29.69S
MADISON        CLEAR     66  55  68 W5        29.69S
WILLMAR        FAIR      61  55  82 CALM      29.72S
$$
MNZ033>034-036-042>043-049>051-058-059-261100-
   Central Minnesota

CITY           SKY/WX    TMP DP  RH WIND       PRES   REMARKS
ST CLOUD       FAIR      62  58  86 S5        29.67S
SAUK CENTRE    FAIR      64  56  76 W3        29.69R
PAYNESVILLE    FAIR      61  58  91 SW3       29.69S
AITKIN         FAIR      54  52  94 CALM      29.64S
PINE RIVER     FAIR      54  50  87 CALM      29.69R
BRAINERD       FAIR      62  56  80 S5        29.66R
STAPLES        FAIR      63  52  67 CALM      29.67R
LONG PRAIRIE   FAIR      59  55  88 S5        29.68S
LITTLE FALLS   FAIR      59  59 100 CALM      29.67R
LITCHFIELD     FAIR      64  61  88 SW3       29.70S
BUFFALO        FAIR      64  58  80 S5        29.69S
MAPLE LAKE     FAIR      65  59  83 CALM      29.70R
HUTCHINSON     FAIR      63  60  89 CALM      29.71S
$$
MNZ037-044-045-052-053-261100-
   East Central Minnesota

CITY           SKY/WX    TMP DP  RH WIND       PRES   REMARKS
PRINCETON      FAIR      64  57  77 S5        29.68R
MORA           FAIR      63  55  77 SW5       29.68S
CAMBRIDGE      FAIR      66  55  68 S6        29.67S
RUSH CITY      FAIR      63  57  81 S3        29.68R
MOOSE LAKE     MOCLDY    55  54  94 CALM      29.64S
HINCKLEY       FAIR      61  57  88 CALM      29.66S
CLOQUET        FAIR      63  55  77 S5        29.65R
MCGREGOR       FAIR      59  55  88 CALM      29.65S
$$
MNZ071>073-080-081-089-090-097-098-261100-
   Southwest Minnesota

CITY           SKY/WX    TMP DP  RH WIND       PRES   REMARKS
MONTEVIDEO     CLEAR     68  54  60 W5        29.69S
CANBY          CLEAR     70  55  57 SW6       29.72S
MARSHALL       CLEAR     65  57  75 W7        29.72R
REDWOOD FALLS  CLEAR     60  58  92 SE8       29.70R
OLIVIA         CLEAR     59  57  94 S3        29.69S
PIPESTONE      CLEAR     63  57  82 CALM      29.76S
WINDOM         CLEAR     64  46  52 S8        29.74R
WORTHINGTON    CLEAR     66  56  70 SW7       29.77R
JACKSON        CLEAR     64  55  72 SW5       29.76S
TRACY          CLEAR     69  57  65 W9        29.72S
SLAYTON        CLEAR     70  54  56 W10       29.75S
$$
MNZ065>067-074>077-082>085-091>093-261100-
   South Central Minnesota

CITY           SKY/WX    TMP DP  RH WIND       PRES   REMARKS
MANKATO        FAIR      64  60  87 S8        29.73S
NEW ULM        CLEAR     63  55  77 S5        29.71S
ST JAMES       CLEAR     66  57  72 SW6       29.73S
FAIRMONT       CLEAR     66  59  78 S7        29.74S
GLENCOE        FAIR      64  60  84 S5        29.70S
FARIBAULT      FAIR      63  61  94 CALM      29.73S
OWATONNA       FAIR      64  61  88 S3        29.74R
WASECA         FAIR      59  57  94 S7        29.75R
ALBERT LEA     FAIR      63  59  88 S6        29.75R
$$
MNZ078>079-086>088-094>096-261100-
   Southeast Minnesota

CITY           SKY/WX    TMP DP  RH WIND       PRES   REMARKS
ROCHESTER      FAIR      64  61  90 SW13      29.74S
RED WING       FAIR      63  57  82 CALM      29.70S
STANTON        FAIR      63  60  89 SW6       29.70S
DODGE CENTER   FAIR      63  61  94 SW12      29.74S
WINONA         FAIR      61  59  94 CALM      29.72S
AUSTIN         FAIR      61  57  88 S3        29.75S
PRESTON        FAIR      63  59  88 SW13      29.75S
$$
ABBREVIATIONS USED IN REMARKS
   TC - TEMPERATURES IN CELSIUS
  WCI - WIND CHILL INDEX
   HX - HEAT INDEX
  VSB - VISIBILITY
$$




USA.gov is the U.S. government's official web portal to all federal, state and local government web resources and services.